Location: Potomac
(46.8816°N, 113.5795°W)
Time: 20:01:45
(UTC+00:00)

JY1SAT - Pass Details

Date: 06 July 2022
Orbit: 563 x 587 km, 97.6° (Epoch: 11 August)

Event Time Altitude Azimuth Distance (km) Brightness Sun altitude
Exits shadow 04:30:03 11° 145° (SE) 1,867 ? -8.4°
Maximum altitude 04:33:56 47° 72° (ENE) 781 ? -8.9°
Drops below altitude 10° 04:37:56 10° 358° (N) 1,920 ? -9.3°
Sets 04:40:09 0° 353° (N) 2,822 ? -9.6°
